Location: Binningen
(47.7924°N, 8.7261°E)
Time: 00:59:08
(UTC+00:00)

Daily predictions for brighter satellites

Satellite Brightness Start Highest point End
(mag) Time Altitude Azimuth Time Altitude Azimuth Time Altitude Azimuth
STARLINK-1209 3.8 00:00:05 10° WNW 00:03:11 49° NNE 00:06:16 10° E
STARLINK-1247 4.2 00:00:46 10° WNW 00:03:46 41° NNE 00:06:45 10° E
STARLINK-1227 4.2 00:01:14 10° WNW 00:04:13 41° NNE 00:07:10 10° E
ATLAS CENTAUR R/B 3.5 00:02:48 10° NNW 00:04:46 24° NNE 00:08:00 10° E
STARLINK-1226 4.2 00:02:05 10° WNW 00:05:04 41° NNE 00:08:04 10° E
STARLINK-1215 4.1 00:03:01 10° WNW 00:06:02 42° NNE 00:09:01 10° E
Nadezhda 2 Rocket 4.5 00:04:33 35° S 00:07:13 74° E 00:13:19 10° NNE
STARLINK-1217 4.1 00:04:47 10° WNW 00:07:48 42° NNE 00:10:48 10° E
STARLINK-1229 4.1 00:05:43 10° WNW 00:08:43 43° NNE 00:11:44 10° E
STARLINK-1270 4.1 00:06:34 10° WNW 00:09:35 43° NNE 00:12:36 10° E
GEOS 3 Rocket 3.5 00:07:39 29° SSE 00:10:23 81° SW 00:15:43 10° NW
Cosmos 1726 3.4 00:07:45 10° NNW 00:10:54 27° W 00:10:54 27° W
STARLINK-1189 4.0 00:08:25 10° WNW 00:11:26 44° NNE 00:14:27 10° E
Cosmos 2058 Rocket 3.3 00:07:50 10° N 00:12:14 65° ENE 00:13:46 39° SE
STARLINK-1188 4.0 00:09:18 10° WNW 00:12:19 44° NNE 00:15:20 10° E
STARLINK-1235 3.7 00:10:00 10° WNW 00:13:02 51° NNE 00:16:03 10° E
Meteor 1-29 2.7 00:10:00 10° NNE 00:13:24 79° ESE 00:13:32 77° SE
STARLINK-1187 3.8 00:10:25 10° WNW 00:13:25 48° NNE 00:16:27 10° E
COSMOS 2455 2.9 00:11:39 37° S 00:14:02 69° ESE 00:20:02 10° NE
Cosmos 2228 3.0 00:10:32 10° NNW 00:14:45 63° W 00:15:32 52° SW
STARLINK-1191 3.9 00:11:47 10° WNW 00:14:47 45° NNE 00:17:47 10° E
STARLINK-1221 3.9 00:12:39 10° WNW 00:15:39 46° NNE 00:18:40 10° E
SJ 16-02 4.0 00:12:39 10° N 00:15:42 18° NE 00:18:44 10° E
STARLINK-1222 3.9 00:13:32 10° WNW 00:16:34 46° NNE 00:19:34 10° E
STARLINK-1214 3.9 00:14:27 10° WNW 00:17:28 47° NNE 00:20:29 10° E
Cosmos 1953 3.9 00:16:03 10° NW 00:19:09 22° W 00:19:26 22° W
SL-14 R/B 3.6 00:18:39 44° SE 00:19:26 53° E 00:23:12 10° NNE
IRAS Rocket 4.2 00:17:53 31° SSE 00:20:40 89° ENE 00:26:17 10° NNW
Cosmos 1340 Rocket 4.0 00:17:24 10° NNW 00:20:52 28° W 00:21:08 28° W
Okean 1-7 Rocket 3.6 00:22:03 45° S 00:23:21 73° E 00:27:52 10° NNE
Cosmos 1174 3.2 00:23:33 70° ESE 00:23:33 70° ESE 00:27:10 10° NE
Cosmos 1300 3.0 00:20:13 10° N 00:24:01 60° ENE 00:25:04 41° SE
Cosmos 921 Rocket 3.9 00:23:34 31° SE 00:24:43 38° ESE 00:28:43 10° NE
BREEZE M DEB (TANK) 2.9 00:26:49 38° E 00:26:49 38° E 00:29:02 10° E
COSMOS 2487 3.1 00:24:22 10° NW 00:27:18 39° W 00:27:18 39° W
Cosmos 2219 4.2 00:27:12 10° NNW 00:32:39 45° NE 00:38:01 10° SE
Cosmos 1626 2.0 00:34:31 58° S 00:35:12 85° E 00:38:56 10° N
STARLINK-60 3.1 00:36:27 59° ESE 00:36:27 59° ESE 00:39:20 10° ENE
Cosmos 1656 Rocket 4.3 00:33:52 24° WSW 00:36:58 48° NW 00:42:23 10° NNE
Cosmos 1606 Rocket 4.3 00:34:05 10° NNW 00:38:02 35° W 00:38:48 33° WSW
FALCON 9 R/B 3.7 00:38:25 29° SSW 00:41:15 37° SSE 00:58:23 10° ESE
Nadezhda 1 Rocket 4.1 00:35:23 10° N 00:41:33 71° E 00:45:52 21° SSE
MOZ.5/SAFIR/RUBIN 5/SL-8 3.8 00:44:16 28° SSE 00:46:40 80° ENE 00:51:20 10° NNW
UNK 4.1 00:44:00 21° SE 00:46:59 61° ENE 00:51:31 10° N
Cosmos 2297 Rocket 3.1 00:42:51 10° NNW 00:48:20 47° NE 00:53:46 10° SE
STARLINK-1245 4.5 00:45:01 10° WNW 00:49:04 52° NNE 00:53:08 10° E
SL-4 R/B 2.3 00:49:13 35° SW 00:51:13 72° SSE 00:55:56 10° ENE
Cosmos 1812 Rocket 4.3 00:47:04 10° N 00:51:26 49° ENE 00:54:30 18° SE
Cosmos 1437 2.4 00:52:48 71° SSE 00:53:02 79° E 00:56:03 10° NNE
STARLINK-1233 4.4 00:49:58 10° WNW 00:54:04 54° NNE 00:58:08 10° E
Cosmos 1674 4.3 00:53:21 20° W 00:54:16 22° WNW 00:57:15 10° NNW
SL-19 R/B 4.3 00:51:50 10° N 00:57:10 68° WNW 01:00:03 29° SW
ATLAS CENTAUR R/B 1.6 00:56:56 33° WSW 00:58:46 67° NW 01:02:53 10° NNE
STARLINK-1204 4.3 00:54:58 10° WNW 00:59:04 56° NNE 01:03:09 10° E
Cosmos 1777 Rocket 4.3 00:54:48 10° NNW 00:59:49 48° WSW 01:01:54 31° SSW
Timation 2 Rocket 3.9 00:53:57 10° NNW 01:00:16 65° WSW 01:04:30 21° S
SL-16 R/B 2.5 00:56:01 18° SSE 01:00:45 89° ENE 01:06:58 10° NNW
NOSS 3-4 (A) 3.9 00:57:31 19° WSW 01:01:50 55° NW 01:08:12 10° NE
NOSS 3-4 (C) 3.9 00:57:37 19° WSW 01:01:56 56° NW 01:08:18 10° NE
BREEZE-M R/B 3.3 01:01:08 35° SSW 01:02:10 42° SSE 01:05:09 10° E
FALCON 9 DEB 3.9 01:02:08 35° SSE 01:02:17 35° SE 01:05:29 10° ENE
Cosmos 1602 Rocket 3.8 01:01:57 29° SSE 01:04:00 64° E 01:08:18 10° NNE
STARLINK-1238 4.2 00:59:55 10° WNW 01:04:02 59° NNE 01:08:08 10° E
STARLINK-29 3.0 01:04:34 54° S 01:04:49 56° SSE 01:07:58 10° ENE
Cosmos 1455 3.4 01:02:53 10° N 01:06:24 37° ENE 01:09:23 13° SE
ATLAS 3B R/B 2.9 01:01:00 10° NW 01:07:31 50° WSW 01:12:43 17° S
BREEZE-M DEB (TANK) 4.1 01:09:30 13° ESE 01:09:30 13° ESE 01:10:05 10° E
STARLINK-1201 4.1 01:04:55 10° WNW 01:09:02 61° NNE 01:13:09 10° ESE
CENTAUR R/B 4.0 01:04:14 10° NW 01:11:08 30° WSW 01:14:47 23° SSW
GP-B 4.1 01:08:27 10° NNE 01:12:43 43° E 01:16:10 15° SSE
BREEZE-M DEB (TANK) 1.1 01:12:39 46° W 01:13:16 82° N 01:15:33 10° ENE
Meteor 2-1 Rocket 4.1 01:08:14 10° N 01:13:47 88° E 01:18:04 18° S
STARLINK-1206 4.0 01:09:54 10° WNW 01:14:02 64° NNE 01:18:09 10° ESE
Cosmos-2242 4.3 01:11:59 10° N 01:16:00 38° ENE 01:19:59 10° SE
Cosmos 1745 Rocket 4.0 01:12:45 25° SSW 01:16:28 76° W 01:22:38 10° N
STARLINK-1205 4.0 01:14:53 10° WNW 01:19:02 68° NNE 01:23:09 10° ESE
RESURS DK-1 2.6 01:19:17 30° SW 01:21:10 61° WNW 01:25:17 10° NNE
STARLINK-1218 3.9 01:19:51 10° WNW 01:24:00 71° NNE 01:28:08 10° ESE
Cosmos 2227 Rocket 2.4 01:18:19 10° NNW 01:24:02 73° ENE 01:29:42 10° SE
Cosmos 1356 Rocket 3.7 01:20:02 10° NNW 01:24:03 50° W 01:25:49 29° SSW
Meteor 1-24 Rocket 4.4 01:22:03 22° SW 01:24:53 38° WNW 01:29:55 10° N
Cosmos 2369 Rocket 4.5 01:23:29 10° WNW 01:26:54 16° NW 01:30:19 10° N
CZ-2D R/B 2.1 01:21:39 10° NNE 01:26:57 83° WNW 01:30:15 23° SSW
Cosmos 1763 Rocket 4.4 01:23:45 16° SSE 01:27:25 40° ESE 01:32:10 10° NE
Cosmos 1697 Rocket 4.1 01:23:12 12° SSE 01:27:41 31° ESE 01:32:35 10° NE
STARLINK-1254 3.8 01:24:50 10° WNW 01:29:00 75° NNE 01:33:08 10° ESE
ADEOS II 3.0 01:24:34 10° NNE 01:29:36 44° E 01:34:07 13° SSE
Cosmos 1703 4.3 01:26:47 16° SSE 01:29:38 41° E 01:33:22 10° NNE
ATLAS 2AS CENTAUR R/B 3.8 01:23:19 10° WSW 01:31:00 47° NW 01:38:33 10° NE
CZ-4C R/B 4.1 01:30:46 27° SW 01:32:23 38° W 01:36:28 10° NNW
STARLINK-1231 3.7 01:29:50 10° WNW 01:34:00 79° NNE 01:38:09 10° ESE
STARLINK-1228 3.5 01:32:30 10° WNW 01:35:38 37° SW 01:38:44 10° SSE
Resurs 1-4 Rocket 2.2 01:31:26 10° N 01:36:42 68° WNW 01:40:11 22° SSW
STARLINK-1234 3.4 01:33:55 10° WNW 01:36:50 36° SW 01:37:03 35° SSW
STARLINK-1212 3.0 01:35:14 10° WNW 01:38:14 46° SW 01:41:14 10° SE
STARLINK-1105 3.0 01:35:42 10° WNW 01:38:42 46° SW 01:41:40 10° SE
STARLINK-1232 3.6 01:34:49 10° WNW 01:38:59 84° NNE 01:43:08 10° ESE
STARLINK-1209 3.6 01:36:12 10° WNW 01:38:42 32° SW 01:38:42 32° SW
STARLINK-1247 3.1 01:36:37 10° WNW 01:39:37 45° SW 01:42:37 10° SE
USA 81 4.0 01:36:19 21° SSW 01:39:55 75° W 01:45:14 10° N
STARLINK-1227 3.1 01:37:05 10° WNW 01:40:04 45° SW 01:43:02 10° SE
STARLINK-1226 3.1 01:37:56 10° WNW 01:40:55 44° SW 01:43:55 10° SE
STARLINK-52 2.9 01:39:41 28° WSW 01:41:14 87° NNW 01:44:27 10° ENE
ARIANE 5 R/B 3.8 01:37:02 10° NNE 01:41:41 35° E 01:46:15 10° SSE
STARLINK-1215 3.1 01:38:53 10° WNW 01:41:53 43° SW 01:44:51 10° SE
Cosmos 1758 Rocket 3.6 01:39:23 19° S 01:42:22 77° E 01:46:46 10° NNE
STARLINK-1217 3.2 01:40:39 10° WNW 01:43:38 42° SW 01:46:36 10° SE
STARLINK-1208 3.6 01:39:46 10° WNW 01:43:56 88° NNE 01:48:05 10° ESE
NPP 3.7 01:38:45 10° N 01:44:08 69° WNW 01:47:57 20° SSW
STARLINK-1229 3.2 01:41:35 10° WNW 01:44:33 41° SW 01:47:31 10° SE
H-2A R/B 4.0 01:41:15 10° SE 01:45:03 31° ENE 01:48:57 10° N
STARLINK-1270 3.2 01:42:27 10° WNW 01:45:25 41° SW 01:48:22 10° SE
STARLINK-1189 3.2 01:44:18 10° WNW 01:47:14 39° SW 01:50:11 10° SE
STARLINK-1188 3.3 01:45:11 10° WNW 01:48:08 39° SW 01:51:04 10° SE
STARLINK-1235 3.6 01:45:57 10° WNW 01:48:44 30° SW 01:51:30 10° SSE
STARLINK-1271 3.5 01:44:46 10° WNW 01:48:56 87° SW 01:53:05 10° ESE
STARLINK-1187 3.4 01:46:20 10° WNW 01:49:11 34° SW 01:52:01 10° SSE
Cosmos 1898 Rocket 3.5 01:43:51 10° NNW 01:49:14 86° WSW 01:54:33 10° SSE
STARLINK-1191 3.3 01:47:40 10° WNW 01:50:34 37° SW 01:53:27 10° SSE
Starlink 7 placeholder 4.0 01:49:43 14° WNW 01:50:52 23° NNW 01:52:33 10° NE
Meteor 1-21 Rocket 4.2 01:46:49 19° SSW 01:50:56 74° WNW 01:56:39 10° N
Lacrosse 4 Rocket 3.0 01:46:50 10° NNW 01:50:58 40° NE 01:55:00 10° ESE
STARLINK-1221 3.3 01:48:32 10° WNW 01:51:26 36° SW 01:54:19 10° SSE
STARLINK-1222 3.4 01:49:27 10° WNW 01:52:20 35° SW 01:55:12 10° SSE
Cosmos 1656 3.7 01:48:20 18° SSW 01:52:35 81° ESE 01:58:14 10° NNE
STARLINK-1214 3.4 01:50:22 10° WNW 01:53:14 35° SW 01:56:05 10° SSE
STARLINK-1154 3.5 01:49:45 10° WNW 01:53:55 82° SSW 01:58:03 10° ESE
CZ-4C R/B 3.0 01:50:43 15° S 01:54:33 40° ESE 01:59:59 10° NE
Cosmos 2285 Rocket 4.2 01:48:17 10° NNW 01:54:43 76° ENE 02:01:03 10° SSE
SJ 16-02 1.4 01:50:20 10° NNW 01:54:43 63° WSW 01:59:06 10° S
IDEFIX/ARIANE 42P 4.5 01:50:35 10° NE 01:54:57 26° E 01:59:18 10° SSE
Cosmos 2084 3.7 01:52:18 19° SW 01:55:23 67° NW 01:59:52 10° NE
Cosmos 468 Rocket 4.0 01:52:22 18° SSW 01:56:16 83° ESE 02:01:25 10° NNE
Cosmos 1953 Rocket 3.9 01:54:38 12° S 01:58:42 64° E 02:03:08 10° NNE
STARLINK-1197 3.5 01:54:44 10° WNW 01:58:53 77° SSW 02:03:02 10° SE
Cosmos 1937 Rocket 3.5 01:54:14 10° NNW 01:59:29 86° ENE 02:04:46 10° SSE
COSMOS 2455 4.2 01:55:13 10° W 02:00:28 30° NW 02:05:46 10° NNE
Cosmos 2369 4.3 01:55:55 12° S 02:00:54 52° ESE 02:06:23 10° NE
Meteor 2-10 Rocket 3.8 01:56:21 10° NNW 02:01:33 52° W 02:06:00 13° SSW
STARLINK-1198 3.5 01:59:41 10° WNW 02:03:50 72° SSW 02:07:58 10° SE
Cosmos 1709 Rocket 4.2 02:01:48 16° SSW 02:06:40 57° WNW 02:12:43 10° N
STARLINK-1199 3.5 02:04:43 10° WNW 02:08:51 67° SSW 02:12:57 10° SE
STARLINK-1269 4.5 02:06:56 10° WNW 02:11:01 53° NNE 02:15:05 10° E
STARLINK-60 4.3 02:09:25 10° W 02:12:27 37° NNW 02:15:28 10° ENE
STARLINK-1210 3.6 02:09:41 10° WNW 02:13:47 63° SW 02:17:53 10° SE
STARLINK-1200 4.4 02:11:56 10° WNW 02:16:02 55° NNE 02:20:07 10° E
Cosmos 2219 3.9 02:11:37 10° NW 02:16:40 34° WSW 02:21:39 10° SSW
STARLINK-1320 2.9 02:14:52 18° SW 02:17:01 70° SSE 02:20:08 10° ENE
STARLINK-1322 2.9 02:15:11 18° SW 02:17:22 71° SSE 02:20:29 10° ENE
STARLINK-1324 2.9 02:15:32 18° SW 02:17:43 71° SSE 02:20:50 10° ENE
STARLINK-1294 2.9 02:15:47 18° SW 02:18:00 71° SSE 02:21:08 10° ENE
STARLINK-1261 2.8 02:16:09 17° SW 02:18:22 72° SSE 02:21:30 10° ENE
STARLINK-1325 2.8 02:16:30 17° SW 02:18:44 72° SSE 02:21:51 10° ENE
STARLINK-1219 3.6 02:14:40 10° WNW 02:18:46 58° SSW 02:22:50 10° SE
STARLINK-1333 2.8 02:16:48 17° SW 02:19:03 73° SSE 02:22:09 10° ENE
STARLINK-1334 2.8 02:17:07 17° SW 02:19:23 73° SSE 02:22:30 10° ENE
STARLINK-1326 2.8 02:17:28 17° SW 02:19:44 74° SSE 02:22:51 10° ENE
Cosmos 1980 Rocket 3.2 02:14:36 10° S 02:19:51 42° ESE 02:25:08 10° NE
STARLINK-1323 2.8 02:17:47 17° SW 02:20:04 74° SSE 02:23:11 10° ENE
STARLINK-1338 3.2 02:17:39 16° SW 02:20:18 69° SSE 02:23:45 10° ENE
STARLINK-1349 2.8 02:18:06 17° SW 02:20:24 74° SSE 02:23:31 10° ENE
STARLINK-1336 2.8 02:18:28 17° SW 02:20:46 75° SSE 02:23:53 10° ENE
STARLINK-1192 4.3 02:16:56 10° WNW 02:21:02 58° NNE 02:25:07 10° E
STARLINK-1331 2.8 02:18:45 16° SW 02:21:04 75° SSE 02:24:11 10° ENE
STARLINK-1344 2.8 02:19:05 16° SW 02:21:25 76° SSE 02:24:32 10° ENE
STARLINK-1343 2.8 02:19:25 16° SW 02:21:45 76° SSE 02:24:52 10° ENE
STARLINK-1346 2.8 02:19:43 16° SW 02:22:06 77° SSE 02:25:16 10° ENE
CRYOSAT 2 4.5 02:17:24 10° N 02:22:17 66° W 02:27:08 10° SSW
CZ-4B R/B 4.4 02:20:45 10° E 02:22:26 14° ENE 02:24:08 10° NNE
STARLINK-1328 2.8 02:20:05 16° SW 02:22:27 77° SSE 02:25:34 10° ENE
Cosmos 1328 4.1 02:19:19 14° SSW 02:22:36 53° WNW 02:26:32 10° N
STARLINK-1354 2.8 02:20:22 16° SW 02:22:45 78° SSE 02:25:52 10° ENE
STARLINK-1347 2.8 02:20:44 16° SW 02:23:07 78° SSE 02:26:14 10° ENE
STARLINK-1357 2.8 02:21:02 16° SW 02:23:26 78° SSE 02:26:34 10° ENE
STARLINK-1211 3.7 02:19:39 10° WNW 02:23:43 54° SW 02:27:45 10° SE
STARLINK-1335 2.8 02:21:22 16° SW 02:23:47 79° SSE 02:26:54 10° ENE
STARLINK-1327 2.8 02:21:41 15° WSW 02:24:06 79° SSE 02:27:14 10° ENE
STARLINK-1371 3.2 02:21:31 15° SW 02:24:19 74° SSE 02:27:49 10° ENE
STARLINK-1340 2.8 02:22:01 15° WSW 02:24:28 80° SSE 02:27:35 10° ENE
ERS-2 2.1 02:20:58 10° SSE 02:24:37 82° WSW 02:28:19 10° NNW
STARLINK-1356 2.8 02:22:21 15° WSW 02:24:48 80° SSE 02:27:56 10° ENE
STARLINK-1345 2.8 02:22:41 15° WSW 02:25:09 81° SSE 02:28:16 10° ENE
STARLINK-1355 2.8 02:22:59 15° WSW 02:25:28 81° SSE 02:28:36 10° ENE
STARLINK-1321 2.8 02:23:18 15° WSW 02:25:48 82° SSE 02:28:56 10° ENE
STARLINK-1244 4.2 02:21:53 10° WNW 02:26:01 60° NNE 02:30:06 10° ESE
STARLINK-1358 2.8 02:23:39 15° WSW 02:26:10 82° SSE 02:29:17 10° ENE
STARLINK-1341 3.1 02:23:29 14° SW 02:26:21 76° SSE 02:29:52 10° ENE
STARLINK-1332 2.8 02:23:57 15° WSW 02:26:28 83° SSE 02:29:36 10° ENE
STARLINK-1348 2.8 02:24:18 15° WSW 02:26:50 83° SSE 02:29:58 10° ENE
STARLINK-1330 2.8 02:24:36 14° WSW 02:27:09 83° SSE 02:30:17 10° ENE
STARLINK-1363 2.8 02:24:56 14° WSW 02:27:30 84° SSE 02:30:37 10° ENE
STARLINK-1337 2.8 02:25:15 14° WSW 02:27:49 84° SSE 02:30:57 10° ENE
IRS-1C 4.2 02:22:33 10° NNE 02:27:53 74° WNW 02:33:13 10° SSW
STARLINK-1342 2.8 02:25:35 14° WSW 02:28:10 85° SSE 02:31:18 10° ENE
STARLINK-1374 3.1 02:25:26 14° SW 02:28:24 78° SSE 02:31:56 10° ENE
STARLINK-1364 2.8 02:25:55 14° WSW 02:28:31 85° SSE 02:31:39 10° ENE
STARLINK-1245 3.8 02:24:40 10° WNW 02:28:41 50° SW 02:32:42 10° SE
STARLINK-1376 2.8 02:26:15 14° WSW 02:28:51 86° SSE 02:32:00 10° ENE
STARLINK-1360 2.8 02:26:30 14° WSW 02:29:08 86° SSE 02:32:16 10° ENE
STARLINK-1361 2.8 02:26:56 14° WSW 02:29:34 87° SSE 02:32:42 10° ENE
STARLINK-1367 2.8 02:27:10 14° WSW 02:29:51 87° SSE 02:33:01 10° ENE
STARLINK-1366 2.8 02:27:33 13° WSW 02:30:12 88° SSE 02:33:21 10° ENE
STARLINK-1339 3.1 02:27:27 13° WSW 02:30:30 81° SSE 02:34:00 10° ENE
STARLINK-1138 4.2 02:26:52 10° WNW 02:31:00 63° NNE 02:35:07 10° ESE
SL-4 R/B 3.0 02:26:24 10° W 02:31:09 56° N 02:35:42 10° ENE
Cosmos 2297 Rocket 3.0 02:27:15 10° NW 02:32:11 31° WSW 02:37:05 10° SSW
STARLINK-1377 3.1 02:29:28 13° WSW 02:32:35 83° SSE 02:36:07 10° ENE
STARLINK-1233 3.8 02:29:39 10° WNW 02:33:38 46° SW 02:37:37 10° SE
STARLINK-1203 4.1 02:29:41 10° WNW 02:33:53 66° NNE 02:38:03 10° ESE
STARLINK-1353 3.1 02:31:17 12° WSW 02:34:27 85° SSE 02:37:56 10° ENE
STARLINK-1143 4.1 02:31:51 10° WNW 02:36:00 66° NNE 02:40:07 10° ESE
Cosmos 2082 3.8 02:30:34 10° NW 02:36:06 56° WSW 02:41:34 10° S
STARLINK-1375 3.1 02:33:04 12° WSW 02:36:18 88° SSE 02:39:49 10° ENE
Cosmos 540 Rocket 3.6 02:32:49 10° SSW 02:37:57 82° ESE 02:43:07 10° NNE
ATLAS CENTAUR R/B 3.8 02:35:52 10° WNW 02:38:22 15° NNW 02:40:48 10° N
STARLINK-1204 3.9 02:34:40 10° WNW 02:38:37 43° SW 02:42:32 10° SSE
STARLINK-1350 3.1 02:35:22 11° WSW 02:38:43 89° N 02:42:12 10° ENE
FALCON 9 DEB 3.8 02:35:52 10° W 02:39:15 53° NNW 02:42:40 10° ENE
STARLINK-1241 4.0 02:36:50 10° WNW 02:40:58 70° NNE 02:45:07 10° ESE
STARLINK-29 4.2 02:38:02 10° W 02:41:03 38° NNW 02:44:05 10° ENE
STARLINK-1352 3.2 02:37:40 10° WSW 02:41:08 86° NNW 02:44:40 10° ENE
OE (NEXTSAT) 4.3 02:37:43 10° W 02:41:10 66° S 02:44:37 10° E
Landsat 5 3.8 02:37:01 10° SSE 02:41:30 82° ENE 02:46:04 10° NNW
Cosmos 1455 3.9 02:39:15 10° NW 02:41:43 17° W 02:44:11 10° SW
CZ-2D R/B 3.5 02:38:10 10° NNE 02:42:17 86° ESE 02:46:29 10° SSW
Cosmos 2278 3.9 02:36:47 10° SSW 02:42:24 75° ESE 02:48:05 10° NNE
STARLINK-1368 3.2 02:39:47 10° WSW 02:43:18 84° NNW 02:46:51 10° ENE
STARLINK-1238 4.0 02:39:39 10° WNW 02:43:32 40° SW 02:47:25 10° SSE
USA 234 4.1 02:37:36 10° ENE 02:43:44 41° SE 02:49:49 10° SSW
Meteor 1-28 Rocket 3.4 02:40:49 10° S 02:44:31 51° W 02:48:13 10° NNW
Meteor 1-11 4.3 02:38:57 10° SSW 02:44:33 69° WNW 02:50:10 10° N
SL-16 R/B 4.1 02:41:22 10° SW 02:45:11 17° W 02:49:01 10° NW
STARLINK-1369 3.2 02:41:44 10° WSW 02:45:13 82° NNW 02:48:44 10° ENE
STARLINK-1239 3.9 02:41:48 10° WNW 02:45:57 74° NNE 02:50:06 10° ESE
ATLAS CENTAUR R/B 3.4 02:43:53 10° W 02:47:08 28° SW 02:53:37 10° SSE
STARLINK-1372 3.3 02:44:10 10° WSW 02:47:41 79° NNW 02:51:15 10° ENE
Cosmos 2074 Rocket 4.1 02:41:41 10° SSW 02:47:57 69° WNW 02:54:16 10° N
Cosmos 2263 Rocket 3.3 02:42:39 10° NNW 02:48:08 51° NE 02:53:34 10° SE
STARLINK-1201 4.1 02:44:40 10° WNW 02:48:31 37° SW 02:52:19 10° SSE
Cosmos 372 Rocket 3.9 02:44:41 10° NNW 02:49:49 79° WSW 02:54:57 10° SSE
STARLINK-1378 3.3 02:46:23 10° WSW 02:49:55 77° NNW 02:53:28 10° ENE
Cosmos 841 Rocket 3.6 02:45:01 10° SSW 02:50:17 76° WNW 02:55:32 10° NNE
STARLINK-1329 3.3 02:46:54 10° WSW 02:50:27 77° NNW 02:54:00 10° ENE
STARLINK-1240 3.8 02:46:48 10° WNW 02:50:57 78° NNE 02:55:06 10° ESE
STARLINK-1365 3.3 02:47:40 10° WSW 02:51:11 73° NNW 02:54:43 10° ENE
STARLINK-1379 3.3 02:48:37 10° WSW 02:52:09 75° NNW 02:55:42 10° ENE
STARLINK-1362 3.3 02:49:12 10° WSW 02:52:44 74° NNW 02:56:18 10° ENE
Cosmos-2242 4.4 02:50:04 10° NW 02:53:19 21° W 02:56:32 10° SW
STARLINK-1206 4.2 02:49:41 10° WNW 02:53:28 34° SW 02:57:13 10° SSE
Cosmos 1892 4.1 02:50:21 10° SSE 02:53:56 39° E 02:57:31 10° NNE
Cosmos 1869 3.4 02:50:16 10° N 02:54:11 78° E 02:58:03 10° SSE
COBE Rocket 4.2 02:49:51 10° S 02:54:35 48° W 02:59:30 10° NNW
Cosmos 1400 Rocket 3.4 02:50:50 10° NNW 02:54:44 41° W 02:58:37 10° SSW
STARLINK-1373 3.4 02:51:30 10° WSW 02:55:02 72° NNW 02:58:36 10° ENE
Cosmos 2221 2.5 02:51:14 10° N 02:55:34 88° W 02:59:55 10° S
STARLINK-1216 3.8 02:51:46 10° WNW 02:55:56 82° NNE 03:00:05 10° ESE
STARLINK-1390 3.4 02:53:34 10° WSW 02:57:06 70° NNW 03:00:39 10° ENE
STARLINK-1205 4.3 02:54:42 10° WNW 02:58:24 32° SW 03:02:05 10° SSE
Cosmos 2184 Rocket 4.2 02:53:25 10° SSW 02:59:30 59° WNW 03:05:37 10° N
SL-08 R/B 4.2 02:56:06 10° SSW 03:00:11 29° W 03:04:14 10° NW
CZ-4C R/B 3.3 02:56:57 10° S 03:00:27 52° W 03:04:02 10° NNW
STARLINK-1237 3.7 02:56:46 10° WNW 03:00:55 86° NNE 03:05:04 10° ESE
